FW2014 Weather Reports


Display with metric or nautical units.
time (UTC)temp
F
wind
direction
speed
MPH
gust
MPH
rain 1hr
in
rain 24hr
in
rain mn
in
humidity
%
barometer
mb
20260502123043 67 201 6.0 18.0 0.00 0.00 0.00 55 1012.5
20260502121545 68 198 8.0 13.0 0.00 0.00 0.00 52 1012.6
20260502114529 67 186 8.0 18.0 0.00 0.00 0.00 53 1012.9
20260502113025 67 187 7.0 16.0 0.00 0.00 0.00 53 1013.2
20260502111519 66 174 6.0 17.0 0.00 0.00 0.00 55 1013.2
20260502110019 66 132 6.0 14.0 0.00 0.00 0.00 56 1013.4
20260502104533 65 150 7.0 14.0 0.00 0.00 0.00 57 1013.5
20260502103006 64 184 7.0 13.0 0.00 0.00 0.00 58 1013.6
20260502101501 64 174 6.0 15.0 0.00 0.00 0.00 59 1013.7
20260502100123 64 169 8.0 15.0 0.00 0.00 0.00 59 1013.8
20260502071507 59 169 3.0 9.0 0.00 0.00 0.00 67 1014.9
20260502064608 57 134 2.0 7.0 0.00 0.00 0.00 68 1015.2
20260502063054 56 164 0.0 4.0 0.00 0.00 0.00 66 1015.3
20260502061550 55 211 0.0 1.0 0.00 0.00 0.00 61 1015.4
20260502060044 54 173 0.0 0.0 0.00 0.00 0.00 17 1015.6
20260502054542 50 173 0.0 0.0 0.00 0.00 0.00 1 1015.7
20260502053036 46 173 0.0 0.0 0.00 0.00 0.00 1 1015.8
20260502051548 43 173 0.0 0.0 0.00 0.00 0.00 1 1016.1
20260502050033 42 173 0.0 0.0 0.00 0.00 0.00 1 1016.3
20260502044522 41 173 0.0 0.0 0.00 0.00 0.00 1 1016.4
20260502043018 39 173 0.0 0.0 0.00 0.00 0.00 1 1016.6
20260502041514 37 173 0.0 0.0 0.00 0.00 0.00 1 1016.8
20260502040010 37 172 0.0 2.0 0.00 0.00 0.00 1 1017.1
20260502034505 37 175 0.0 0.0 0.00 0.00 0.00 1 1017.2
20260502033001 37 175 0.0 0.0 0.00 0.00 0.00 1 1017.4
20260502031610 37 175 0.0 0.0 0.00 0.00 0.00 1 1017.6
20260502030052 37 175 0.0 0.0 0.00 0.00 0.00 1 1017.9
20260502024554 38 175 0.0 0.0 0.00 0.00 0.00 1 1018.1
20260502023043 38 175 0.0 0.0 0.00 0.00 0.00 1 1018.3
20260502021538 38 175 0.0 0.0 0.00 0.00 0.00 1 1018.5
20260502020036 38 175 0.0 0.0 0.00 0.00 0.00 1 1018.7
20260502014532 38 175 0.0 0.0 0.00 0.00 0.00 1 1018.9
20260502013026 38 175 0.0 0.0 0.00 0.00 0.00 1 1019.1
20260502011528 39 174 0.0 0.0 0.00 0.00 0.00 1 1019.2
20260502010018 39 172 0.0 0.0 0.00 0.00 0.00 1 1019.3
20260502004513 39 172 0.0 0.0 0.00 0.00 0.00 1 1019.4
20260502003016 39 172 0.0 0.0 0.00 0.00 0.00 1 1019.7
20260502001503 40 172 0.0 0.0 0.00 0.00 0.00 2 1019.8
20260501234559 40 172 0.0 0.0 0.00 0.00 0.00 11 1020.0
20260501233054 40 172 0.0 0.0 0.00 0.00 0.00 12 1020.2
20260501231556 41 172 0.0 0.0 0.00 0.00 0.00 23 1020.4
20260501230047 41 171 0.0 0.0 0.00 0.00 0.00 25 1020.5
20260501224541 41 171 0.0 0.0 0.00 0.00 0.00 33 1020.6
20260501223037 42 171 0.0 0.0 0.00 0.00 0.00 44 1020.7
20260501221534 42 171 0.0 0.0 0.00 0.00 0.00 53 1020.7
20260501220029 44 172 0.0 1.0 0.00 0.00 0.00 61 1020.8
20260501214535 45 171 0.0 0.0 0.00 0.00 0.00 66 1021.0
20260501213021 46 170 0.0 0.0 0.00 0.00 0.00 68 1021.1
20260501211520 48 170 0.0 0.0 0.00 0.00 0.00 69 1021.2
20260501210012 49 169 0.0 0.0 0.00 0.00 0.00 69 1021.2
20260501204509 52 194 0.0 6.0 0.00 0.00 0.00 67 1021.3
20260501203003 52 178 0.0 3.0 0.00 0.00 0.00 66 1021.4
20260501201559 52 193 2.0 5.0 0.00 0.00 0.00 66 1021.6
20260501200054 53 202 0.0 6.0 0.00 0.00 0.00 65 1021.7
20260501194559 53 177 3.0 7.0 0.00 0.00 0.00 65 1021.8
20260501193045 53 167 0.0 4.0 0.00 0.00 0.00 63 1021.8
20260501191540 54 205 0.0 4.0 0.00 0.00 0.00 61 1022.1
20260501190037 54 195 3.0 7.0 0.00 0.00 0.00 61 1022.2
20260501184532 55 231 5.0 11.0 0.00 0.00 0.00 59 1022.4
20260501183028 56 208 6.0 13.0 0.00 0.00 0.00 60 1022.4
20260501181523 57 185 8.0 15.0 0.00 0.00 0.00 57 1022.4
20260501180027 59 176 4.0 9.0 0.00 0.00 0.00 54 1022.4
20260501174514 59 213 6.0 12.0 0.00 0.00 0.00 53 1022.6
20260501173010 59 143 6.0 13.0 0.00 0.00 0.00 52 1022.7
20260501171509 60 235 8.0 13.0 0.00 0.00 0.00 49 1022.9
20260501170101 61 302 6.0 13.0 0.00 0.00 0.00 47 1022.9
20260501164557 63 245 6.0 16.0 0.00 0.00 0.00 45 1023.0
20260501163052 63 188 7.0 17.0 0.00 0.00 0.00 45 1023.1
20260501161547 63 203 10.0 16.0 0.00 0.00 0.00 45 1023.3
20260501160052 63 178 8.0 15.0 0.00 0.00 0.00 45 1023.5
20260501154541 64 141 7.0 15.0 0.00 0.00 0.00 44 1023.7
20260501153034 64 174 6.0 15.0 0.00 0.00 0.00 45 1023.8
20260501151539 64 205 10.0 20.0 0.00 0.00 0.00 45 1023.8
20260501150025 65 198 9.0 14.0 0.00 0.00 0.00 44 1024.0